AUA161 LOWW-EDXW

Flight info

Callsign AUA161
Flight time N/A
Altitude 36000
Route LANUX2C/29 LANUX DCT VLM DCT HDO DCT BUMIL DCT ELSOB/N0457F350 Y348 OMWEG DCT BADOS DCT OLDIP
Aircraft A320/M-SDE3FGHIRWY/LB1

Departure

Time N/A
Airport Vienna International Airport (LOWW)

Arrival

Time 2026-04-10 15:18
Airport Westerland Sylt Airport (EDXW)
Time Latitude Longitude Altitude Speed Heading
2026-04-10 14:54 53.47125 10.17480 36110 ft 414 kts 297°
2026-04-10 14:55 53.48453 10.13158 36111 ft 414 kts 297°
2026-04-10 14:55 53.51084 10.04596 36113 ft 414 kts 297°
2026-04-10 14:56 53.53699 9.96082 35885 ft 400 kts 298°
2026-04-10 14:56 53.55277 9.92332 34935 ft 395 kts 313°
2026-04-10 14:56 53.57444 9.89465 33918 ft 394 kts 323°
2026-04-10 14:56 53.59720 9.86970 32838 ft 387 kts 323°
2026-04-10 14:57 53.61964 9.84514 31762 ft 381 kts 322°
2026-04-10 14:57 53.64129 9.82128 30787 ft 373 kts 322°
2026-04-10 14:57 53.66267 9.79754 29758 ft 364 kts 322°
2026-04-10 14:57 53.68354 9.77432 28676 ft 355 kts 322°
2026-04-10 14:58 53.70393 9.75161 27653 ft 349 kts 322°
2026-04-10 14:58 53.72414 9.72902 26776 ft 349 kts 322°
2026-04-10 14:58 53.74426 9.70647 26220 ft 345 kts 322°
2026-04-10 14:58 53.76420 9.68413 25695 ft 341 kts 322°
2026-04-10 14:59 53.78388 9.66207 25182 ft 337 kts 322°
2026-04-10 14:59 53.80335 9.64025 24680 ft 335 kts 322°
2026-04-10 14:59 53.82268 9.61858 24170 ft 332 kts 322°
2026-04-10 14:59 53.84184 9.59704 23683 ft 330 kts 322°
2026-04-10 15:00 53.86088 9.57559 23132 ft 328 kts 322°
2026-04-10 15:00 53.87982 9.55417 22661 ft 328 kts 322°
2026-04-10 15:00 53.89881 9.53269 22189 ft 327 kts 322°
2026-04-10 15:00 53.91771 9.51132 21740 ft 326 kts 322°
2026-04-10 15:01 53.93670 9.48984 21278 ft 336 kts 322°
2026-04-10 15:01 53.95647 9.46738 20733 ft 345 kts 322°
2026-04-10 15:01 53.97649 9.44465 20218 ft 347 kts 322°
2026-04-10 15:01 53.99657 9.42191 19715 ft 346 kts 322°
2026-04-10 15:02 54.01657 9.39927 19225 ft 346 kts 322°
2026-04-10 15:02 54.03659 9.37658 18740 ft 345 kts 322°
2026-04-10 15:02 54.05654 9.35388 18241 ft 345 kts 322°
2026-04-10 15:02 54.07643 9.33119 17676 ft 344 kts 322°
2026-04-10 15:03 54.09628 9.30851 17137 ft 343 kts 322°
2026-04-10 15:03 54.11577 9.28619 16610 ft 342 kts 322°
2026-04-10 15:03 54.13549 9.26362 16084 ft 342 kts 323°
2026-04-10 15:03 54.15524 9.24100 15593 ft 342 kts 323°
2026-04-10 15:04 54.17498 9.21834 15080 ft 342 kts 323°
2026-04-10 15:04 54.19472 9.19568 14587 ft 342 kts 323°
2026-04-10 15:04 54.21453 9.17292 14077 ft 342 kts 324°
2026-04-10 15:04 54.23426 9.15020 13556 ft 342 kts 324°
2026-04-10 15:05 54.27360 9.10489 12460 ft 338 kts 324°
2026-04-10 15:05 54.29304 9.08252 11928 ft 336 kts 324°
2026-04-10 15:05 54.31238 9.06020 11403 ft 334 kts 324°
2026-04-10 15:06 54.33153 9.03803 10888 ft 331 kts 324°
2026-04-10 15:06 54.35060 9.01595 10378 ft 329 kts 324°
2026-04-10 15:06 54.36951 8.99400 9871 ft 327 kts 324°
2026-04-10 15:06 54.38820 8.97229 9328 ft 323 kts 324°
2026-04-10 15:07 54.40667 8.95082 8845 ft 313 kts 324°
2026-04-10 15:07 54.42386 8.93082 8709 ft 285 kts 324°
2026-04-10 15:07 54.43965 8.91247 8440 ft 266 kts 323°
2026-04-10 15:07 54.45479 8.89481 7992 ft 258 kts 323°
2026-04-10 15:08 54.46929 8.87789 7861 ft 247 kts 324°
2026-04-10 15:08 54.48322 8.86161 7687 ft 238 kts 323°
2026-04-10 15:08 54.49679 8.84575 7416 ft 234 kts 323°
2026-04-10 15:08 54.51020 8.83004 7070 ft 233 kts 323°
2026-04-10 15:09 54.52366 8.81426 6690 ft 235 kts 323°
2026-04-10 15:09 54.53711 8.79846 6362 ft 233 kts 323°
2026-04-10 15:09 54.55042 8.78279 5997 ft 232 kts 323°
2026-04-10 15:09 54.56376 8.76708 5656 ft 231 kts 323°
2026-04-10 15:10 54.57706 8.75141 5259 ft 232 kts 322°
2026-04-10 15:10 54.59017 8.73597 5054 ft 224 kts 322°
2026-04-10 15:10 54.60299 8.72089 4727 ft 223 kts 323°
2026-04-10 15:10 54.61584 8.70575 4349 ft 224 kts 323°
2026-04-10 15:11 54.62863 8.69052 4037 ft 222 kts 321°
2026-04-10 15:11 54.64099 8.67547 3731 ft 220 kts 322°
2026-04-10 15:11 54.65348 8.66017 3396 ft 220 kts 320°
2026-04-10 15:11 54.66586 8.64497 3124 ft 217 kts 321°
2026-04-10 15:12 54.67821 8.62981 2998 ft 218 kts 322°
2026-04-10 15:12 54.69061 8.61463 3003 ft 219 kts 321°
2026-04-10 15:12 54.70306 8.59938 3007 ft 219 kts 321°
2026-04-10 15:12 54.71545 8.58423 3001 ft 213 kts 321°
2026-04-10 15:13 54.72715 8.56995 2998 ft 199 kts 321°
2026-04-10 15:13 54.73802 8.55668 3033 ft 185 kts 321°
2026-04-10 15:13 54.74833 8.54395 3006 ft 180 kts 320°
2026-04-10 15:13 54.75850 8.53136 3000 ft 180 kts 321°
2026-04-10 15:14 54.76867 8.51883 2998 ft 179 kts 321°
2026-04-10 15:14 54.77880 8.50638 3000 ft 179 kts 320°
2026-04-10 15:14 54.78895 8.49390 2862 ft 179 kts 321°
2026-04-10 15:14 54.79906 8.48146 2642 ft 177 kts 320°
2026-04-10 15:15 54.80901 8.46920 2418 ft 175 kts 321°
2026-04-10 15:15 54.81890 8.45703 2179 ft 174 kts 321°
2026-04-10 15:15 54.82873 8.44492 1940 ft 173 kts 321°
2026-04-10 15:15 54.83844 8.43296 1696 ft 165 kts 321°
2026-04-10 15:16 54.84716 8.42226 1506 ft 147 kts 321°
2026-04-10 15:16 54.85531 8.41236 1260 ft 138 kts 320°
2026-04-10 15:16 54.86293 8.40302 1117 ft 132 kts 319°
2026-04-10 15:16 54.87037 8.39375 927 ft 131 kts 319°
2026-04-10 15:17 54.87765 8.38487 749 ft 129 kts 319°
2026-04-10 15:17 54.88502 8.37573 573 ft 131 kts 320°
2026-04-10 15:17 54.89238 8.36656 390 ft 131 kts 319°
2026-04-10 15:17 54.89966 8.35733 180 ft 129 kts 318°
2026-04-10 15:18 54.90697 8.34837 46 ft 126 kts 321°
2026-04-10 15:18 54.91244 8.34136 45 ft 53 kts 324°
2026-04-10 15:18 54.91432 8.33907 42 ft 29 kts 325°
2026-04-10 15:18 54.91543 8.33771 43 ft 28 kts 324°
2026-04-10 15:19 54.91697 8.33581 45 ft 27 kts 325°
2026-04-10 15:19 54.91842 8.33400 41 ft 24 kts 324°
2026-04-10 15:19 54.91859 8.33226 42 ft 15 kts 212°
2026-04-10 15:19 54.91752 8.33177 41 ft 17 kts 182°
2026-04-10 15:20 54.91625 8.33178 38 ft 14 kts 180°
2026-04-10 15:20 54.91541 8.33178 35 ft 12 kts 180°
2026-04-10 15:20 54.91452 8.33207 32 ft 16 kts 155°
2026-04-10 15:20 54.91358 8.33250 32 ft 11 kts 182°
2026-04-10 15:21 54.91310 8.33215 33 ft 4 kts 225°
2026-04-10 15:21 54.91301 8.33190 33 ft 5 kts 242°
2026-04-10 15:21 54.91296 8.33128 34 ft 0 kts 272°
2026-04-10 15:21 54.91302 8.33119 34 ft 2 kts 322°
2026-04-10 15:22 54.91310 8.33128 31 ft 2 kts 46°
2026-04-10 15:22 54.91309 8.33133 31 ft 0 kts 79°